Regional Weather Roundup
Issued by NWS

Home | Current Version | Previous Version | Graphics & Text | Print | Product List | Glossary On
Versions: 1 2 3 4 5 6 7 8 9 10 11 12 13 14 15 16 17 18 19 20 21 22 23 24 25 26 27 28 29 30 31 32 33 34 35 36 37 38 39 40 41 42 43 44 45 46 47 48 49 50
000
ASUS45 KBOU 241607
RWRCO

WEATHER ROUNDUP FOR COLORADO
NATIONAL WEATHER SERVICE DENVER/BOULDER CO
1000 AM MDT SAT JUN 24 2017

NOTE: "FAIR" INDICATES FEW OR NO CLOUDS BELOW 12000 FEET WITH NO
SIGNIFICANT WEATHER AND/OR OBSTRUCTIONS TO VISIBILITY.

COZ001>005-013-030-031-241700-
...NORTHWEST COLORADO...

CITY           SKY/WX    TMP DP  RH WIND       PRES   REMARKS
CRAIG          FAIR      63  35  35 VRB5      30.35S
HAYDEN         FAIR      59  34  38 W8        30.36S
MEEKER         FAIR      63  34  33 SW3       30.34S
RABBIT EARS PA FAIR      50  30  46 W6        30.54R
STEAMBOAT SPGS FAIR      58  33  39 SW6       30.36S
WALDEN         FAIR      55  37  50 SW3       30.42S
$$

COZ006>008-011-241700-
...WEST CENTRAL VALLEYS...

CITY           SKY/WX    TMP DP  RH WIND       PRES   REMARKS
GRAND JUNCTION FAIR      77  29  17 S9        30.18S
MONTROSE       FAIR      75  28  17 NW7       30.26S
EAGLE          SUNNY     64  30  27 CALM      30.33F
RIFLE          FAIR      72  30  21 CALM      30.25F
DELTA          FAIR      75  29  18 CALM      30.22F
NUCLA          FAIR      75  27  16 CALM      30.28F
$$

COZ017>023-064>068-241700-
...SOUTHWEST COLORADO...

CITY           SKY/WX    TMP DP  RH WIND       PRES   REMARKS
DURANGO        FAIR      71  45  39 E8        30.30F
CORTEZ         FAIR      75  30  19 CALM      30.24F
PAGOSA SPRINGS FAIR      69  40  35 S6        30.38F
TELLURIDE      FAIR      69  16  13 W6        30.47S
WOLF CREEK PAS FAIR      50  37  62 S10G16    30.69S
$$

COZ009-010-012-014-032>034-037-058>063-241700-
...CENTRAL COLORADO...

CITY           SKY/WX    TMP DP  RH WIND       PRES   REMARKS
ASPEN          FAIR      67  31  26 VRB5      30.35F
BUENA VISTA    FAIR      60  39  44 CALM      30.38F
COPPER MTN     FAIR      54  19  26 NW18G26   30.62S
BERTHOUD PASS  FAIR      41  30  65 NW18G28   30.62F
COTTONWOOD PAS FAIR      59  37  44 SE3       30.49S
GUNNISON       FAIR      61  32  33 CALM      30.37F
KREMMLING      NOT AVBL
LEADVILLE      FAIR      61  24  24 N6        30.46F
MONARCH PASS   FAIR      52  23  32 W14       30.73S
SALIDA         FAIR      63  42  46 N5        30.43F
SUNLIGHT       FAIR      54  23  30 NW3       30.59S
WILKERSON PASS FAIR      50  32  50 N5        30.60S
$$

COZ069>075-241700-
...SAN LUIS VALLEY/SANGRE DE CRISTO MOUNTAINS...

CITY           SKY/WX    TMP DP  RH WIND       PRES   REMARKS
ALAMOSA        FAIR      66  47  50 SW10      30.35F
DEL NORTE      FAIR      63  44  48 NE6       30.39F
LA VETA PASS   PTSUNNY   57  48  72 MISG      30.63F
SAGUACHE       FAIR      63  45  51 SE7       30.39F
$$

COZ035-036-038>040-241700-
...NORTHERN COLORADO FRONT RANGE...

CITY           SKY/WX    TMP DP  RH WIND       PRES   REMARKS
DENVER INTL AP PTSUNNY   63  47  55 N5        30.32F
DMNS CITY PARK   N/A     63  48  58 N10       30.32F
AURORA         PTSUNNY   62  51  68 NW9       30.33F
FRONT RANGE AP CLOUDY    64  50  59 CALM      30.33S
ERIE MUNI ARPT CLOUDY    60  49  67 N3        30.32F
BOULDER MUN AP CLOUDY    59  50  72 CALM      30.33S
CENTENNIAL     FAIR      59  48  67 W6        30.34F
BROOMFIELD     CLOUDY    59  50  72 CALM      30.35S
FORT COLLINS   CLOUDY    61  40  45 VRB5      30.34S
LONGMONT       CLOUDY    64  47  55 N5        30.34S
$$

COZ041-046-047-076>085-087-088-241700-
...PIKES PEAK/PALMER DIVIDE AND SOUTHERN FOOTHILLS...

CITY           SKY/WX    TMP DP  RH WIND       PRES   REMARKS
COLO. SPRINGS  PTSUNNY   62  46  55 S10       30.36S
A. F. ACADEMY  FAIR      63  45  50 SE10      30.36R
SCHRIEVER AFB  FAIR      63  45  52 S14       30.36S
CHEYENNE MTN   PTSUNNY   58  45  62 SE12      30.33S
ELLICOTT       PTSUNNY  N/A N/A N/A S12G21    30.35S
FALCON           N/A     60  42  50 S16G22    30.39S
FORT CARSON    CLOUDY    64  45  49 S7        30.33S
LIMON          CLOUDY    63  46  54 S7        30.34S
MONUMENT HILL  CLOUDY    61  43  51 SW7       30.39S
CANON CITY     MOSUNNY   68  50  52 E9        30.30F
WALSENBURG     PTSUNNY   68  50  52 E8        30.33F
TRINIDAD       CLOUDY    62  46  55 S5        30.34F
$$

COZ042>045-048>051-090-091-241700-
...NORTHEAST COLORADO...

CITY           SKY/WX    TMP DP  RH WIND       PRES   REMARKS
GREELEY ARPT   FAIR      61  39  44 E6        30.33S
AKRON          CLOUDY    63  43  48 E8        30.31F
BURLINGTON     CLOUDY    65  48  54 S9        30.32R
WRAY           PTSUNNY   68  45  42 SE9G16    30.31S
YUMA           CLOUDY    61  46  59 E8        30.31F
STERLING       CLOUDY    66  45  45 SE6       30.30S
HOLYOKE        NOT AVBL
FORT MORGAN    CLOUDY    62  42  48 NE8       30.32S
$$

COZ086-089-092>099-241700-
...SOUTHEAST COLORADO...

CITY           SKY/WX    TMP DP  RH WIND       PRES   REMARKS
PUEBLO         CLOUDY    67  49  52 SE12      30.29S
LA JUNTA       CLOUDY    70  47  43 SE12      30.28F
LAMAR          CLOUDY    73  45  36 S15       30.27F
SPRINGFIELD      N/A     66  46  48 S17       30.31F
$$



USA.gov is the U.S. government's official web portal to all federal, state and local government web resources and services.